{"data":{"norad_id":66701,"epoch":"2026-09-20T08:02:30.541344Z","epoch_age_seconds":135096,"freshness":"FRESH","line1":"1 66701U 25276AM  26263.33507571  .00005074  00000+0  23114-3 0  9991","line2":"2 66701  97.4138 335.4778 0005463  46.0547 314.1138 15.21106877 44888","mean_motion":15.21106877,"eccentricity":0.0005463,"inclination_deg":97.4138,"raan_deg":335.4778,"arg_perigee_deg":46.0547,"mean_anomaly_deg":314.1138,"bstar":0.00023114,"rev_number":4488,"period_min":94.667904127818,"perigee_km":498.74176720965,"apogee_km":506.25955191649,"semimajor_km":6880.6376595631,"source":"CELESTRAK","updated_at":"2026-09-21T09:00:16.129698Z"}}